QPF
0.02 0.02 0.01 0.01 0.01 0.00 0.00 0.00 0.00 0.00 0.00 0.00 0.00 0.00 0.00 0.00 0.00 0.00 0.00 0.00 0.00 0.00 0.00 0.00 0.00 0.00 0.00 0.00 0.00 0.00 0.00 0.00 0.00 0.00 0.00 0.00 0.00 0.00 0.00 0.00 0.00 0.01 0.01 0.02
0.01 0.02 0.02 0.02 0.01 0.01 0.00 0.00 0.00 0.00 0.00 0.00 0.00 0.00 0.00 0.00 0.00 0.00 0.00 0.00 0.00 0.00 0.00 0.00 0.00 0.00 0.00 0.00 0.00 0.00 0.00 0.00 0.00 0.00 0.00 0.00 0.00 0.00 0.00 0.00 0.00 0.01 0.01 0.02
0.01 0.01 0.02 0.03 0.03 0.01 0.00 0.00 0.00 0.00 0.00 0.00 0.00 0.00 0.00 0.00 0.00 0.00 0.00 0.00 0.00 0.00 0.00 0.00 0.00 0.00 0.00 0.00 0.00 0.00 0.00 0.00 0.00 0.00 0.00 0.00 0.00 0.00 0.00 0.00 0.00 0.01 0.01 0.01
0.00 0.01 0.02 0.02 0.02 0.02 0.01 0.00 0.00 0.00 0.00 0.00 0.00 0.00 0.00 0.00 0.00 0.00 0.00 0.00 0.00 0.00 0.00 0.00 0.00 0.00 0.00 0.00 0.00 0.00 0.00 0.00 0.00 0.00 0.00 0.00 0.00 0.01 0.01 0.01 0.01 0.01 0.01 0.01
0.01 0.01 0.01 0.01 0.02 0.02 0.01 0.00 0.00 0.00 0.00 0.00 0.00 0.00 0.00 0.00 0.00 0.00 0.00 0.00 0.00 0.00 0.00 0.00 0.00 0.00 0.00 0.00 0.00 0.00 0.00 0.00 0.00 0.00 0.00 0.00 0.00 0.01 0.01 0.01 0.01 0.01 0.01 0.01
0.01 0.03 0.02 0.01 0.01 0.01 0.00 0.00 0.00 0.00 0.00 0.00 0.00 0.00 0.00 0.00 0.00 0.00 0.00 0.00 0.00 0.00 0.00 0.00 0.00 0.00 0.00 0.00 0.00 0.00 0.00 0.00 0.00 0.00 0.01 0.00 0.00 0.00 0.01 0.01 0.01 0.01 0.01 0.01
0.01 0.02 0.01 0.01 0.00 0.00 0.00 0.00 0.00 0.00 0.00 0.00 0.00 0.00 0.00 0.00 0.00 0.00 0.00 0.00 0.00 0.00 0.00 0.00 0.00 0.00 0.00 0.00 0.00 0.00 0.00 0.00 0.01 0.01 0.01 0.00 0.01 0.01 0.01 0.01 0.01 0.01 0.01 0.01
0.01 0.01 0.01 0.00 0.00 0.00 0.00 0.00 0.00 0.00 0.00 0.00 0.00 0.00 0.00 0.00 0.00 0.00 0.00 0.00 0.00 0.00 0.00 0.00 0.00 0.00 0.00 0.00 0.00 0.00 0.00 0.01 0.01 0.01 0.01 0.00 0.01 0.01 0.01 0.01 0.01 0.01 0.02 0.01
0.00 0.00 0.00 0.00 0.00 0.00 0.00 0.00 0.00 0.00 0.00 0.00 0.00 0.00 0.00 0.00 0.00 0.00 0.00 0.00 0.00 0.00 0.00 0.00 0.00 0.00 0.00 0.00 0.00 0.00 0.01 0.01 0.02 0.01 0.01 0.01 0.01 0.01 0.01 0.01 0.02 0.02 0.02 0.02
0.00 0.00 0.00 0.00 0.00 0.00 0.00 0.00 0.00 0.00 0.00 0.00 0.00 0.00 0.00 0.00 0.00 0.00 0.00 0.00 0.00 0.00 0.00 0.00 0.00 0.00 0.00 0.00 0.00 0.01 0.01 0.01 0.01 0.01 0.01 0.01 0.01 0.01 0.01 0.02 0.02 0.02 0.02 0.02
0.00 0.00 0.00 0.00 0.00 0.00 0.00 0.00 0.00 0.00 0.00 0.00 0.00 0.00 0.00 0.00 0.00 0.00 0.00 0.00 0.00 0.00 0.00 0.00 0.00 0.00 0.00 0.00 0.00 0.00 0.01 0.01 0.00 0.01 0.01 0.01 0.01 0.01 0.01 0.01 0.02 0.02 0.02 0.02
0.00 0.00 0.00 0.00 0.00 0.00 0.00 0.00 0.00 0.00 0.00 0.00 0.00 0.00 0.00 0.00 0.00 0.00 0.00 0.00 0.00 0.00 0.00 0.00 0.00 0.00 0.00 0.00 0.00 0.01 0.01 0.00 0.00 0.01 0.01 0.01 0.01 0.01 0.01 0.01 0.01 0.01 0.02 0.02
0.00 0.00 0.00 0.00 0.00 0.00 0.00 0.00 0.00 0.00 0.00 0.00 0.00 0.00 0.00 0.00 0.00 0.00 0.00 0.00 0.00 0.00 0.00 0.00 0.00 0.00 0.00 0.00 0.00 0.01 0.01 0.00 0.00 0.01 0.01 0.01 0.01 0.02 0.02 0.01 0.01 0.02 0.02 0.02
0.00 0.00 0.00 0.00 0.00 0.00 0.00 0.00 0.00 0.00 0.00 0.00 0.00 0.00 0.00 0.00 0.00 0.00 0.00 0.00 0.00 0.00 0.00 0.00 0.00 0.00 0.00 0.00 0.00 0.00 0.00 0.00 0.00 0.00 0.01 0.01 0.01 0.02 0.02 0.02 0.02 0.02 0.02 0.02
0.00 0.00 0.00 0.00 0.00 0.00 0.00 0.00 0.00 0.00 0.00 0.00 0.00 0.00 0.00 0.00 0.00 0.00 0.00 0.00 0.00 0.00 0.00 0.00 0.00 0.00 0.00 0.00 0.00 0.00 0.00 0.00 0.00 0.00 0.01 0.01 0.01 0.02 0.02 0.02 0.03 0.02 0.02 0.02
0.00 0.00 0.00 0.00 0.00 0.00 0.00 0.00 0.00 0.00 0.00 0.00 0.00 0.00 0.00 0.00 0.00 0.00 0.00 0.00 0.00 0.00 0.00 0.00 0.00 0.00 0.00 0.00 0.00 0.00 0.00 0.00 0.00 0.00 0.01 0.01 0.01 0.02 0.02 0.03 0.03 0.02 0.02 0.02
0.01 0.01 0.00 0.00 0.00 0.00 0.00 0.00 0.00 0.00 0.00 0.00 0.00 0.00 0.00 0.00 0.00 0.00 0.00 0.00 0.00 0.00 0.00 0.00 0.00 0.00 0.00 0.00 0.00 0.00 0.00 0.01 0.01 0.01 0.01 0.01 0.01 0.02 0.02 0.02 0.02 0.02 0.02 0.01
0.01 0.01 0.00 0.00 0.00 0.01 0.01 0.00 0.00 0.00 0.00 0.00 0.00 0.00 0.00 0.00 0.00 0.00 0.00 0.00 0.00 0.00 0.00 0.00 0.00 0.00 0.00 0.00 0.00 0.00 0.00 0.01 0.01 0.01 0.01 0.01 0.01 0.02 0.02 0.02 0.02 0.02 0.01 0.01
0.01 0.01 0.01 0.00 0.00 0.01 0.01 0.01 0.01 0.00 0.01 0.00 0.00 0.00 0.00 0.00 0.00 0.00 0.00 0.00 0.00 0.00 0.00 0.00 0.00 0.00 0.00 0.00 0.00 0.00 0.00 0.01 0.01 0.01 0.01 0.01 0.01 0.02 0.02 0.02 0.02 0.02 0.02 0.01
0.01 0.01 0.01 0.01 0.01 0.01 0.01 0.01 0.01 0.01 0.01 0.00 0.00 0.00 0.00 0.00 0.00 0.00 0.00 0.00 0.00 0.00 0.00 0.00 0.00 0.00 0.00 0.00 0.00 0.00 0.00 0.01 0.01 0.01 0.01 0.01 0.01 0.01 0.02 0.02 0.02 0.02 0.02 0.02
0.02 0.02 0.02 0.02 0.02 0.02 0.02 0.01 0.01 0.01 0.01 0.00 0.00 0.00 0.00 0.00 0.00 0.00 0.00 0.00 0.00 0.00 0.00 0.00 0.00 0.00 0.00 0.00 0.00 0.00 0.00 0.01 0.01 0.01 0.01 0.01 0.01 0.01 0.01 0.02 0.02 0.02 0.02 0.03
0.03 0.03 0.03 0.03 0.03 0.02 0.02 0.01 0.01 0.01 0.01 0.01 0.00 0.00 0.00 0.00 0.00 0.00 0.00 0.00 0.00 0.00 0.00 0.00 0.00 0.00 0.00 0.00 0.00 0.00 0.00 0.00 0.01 0.01 0.01 0.01 0.01 0.01 0.01 0.02 0.02 0.02 0.02 0.02
0.02 0.02 0.03 0.03 0.05 0.05 0.03 0.02 0.01 0.01 0.01 0.01 0.00 0.00 0.00 0.00 0.00 0.00 0.00 0.00 0.00 0.00 0.00 0.00 0.00 0.00 0.00 0.00 0.00 0.00 0.00 0.00 0.00 0.01 0.01 0.01 0.01 0.01 0.01 0.02 0.02 0.02 0.02 0.02
0.02 0.02 0.01 0.02 0.03 0.03 0.03 0.04 0.03 0.03 0.02 0.01 0.01 0.01 0.01 0.01 0.01 0.01 0.01 0.01 0.01 0.01 0.00 0.00 0.00 0.00 0.00 0.00 0.00 0.00 0.00 0.00 0.00 0.00 0.01 0.01 0.01 0.01 0.02 0.02 0.02 0.03 0.03 0.02
0.00 0.00 0.00 0.01 0.01 0.02 0.02 0.02 0.02 0.02 0.02 0.01 0.01 0.01 0.01 0.01 0.01 0.01 0.01 0.01 0.01 0.01 0.00 0.00 0.00 0.00 0.00 0.00 0.00 0.00 0.00 0.00 0.00 0.00 0.00 0.01 0.01 0.01 0.02 0.03 0.03 0.03 0.03 0.02
0.00 0.00 0.00 0.01 0.01 0.01 0.01 0.01 0.01 0.02 0.02 0.02 0.02 0.02 0.02 0.02 0.02 0.02 0.02 0.02 0.01 0.01 0.00 0.00 0.00 0.00 0.00 0.00 0.00 0.00 0.01 0.01 0.01 0.00 0.01 0.01 0.01 0.01 0.02 0.03 0.02 0.01 0.01 0.01
0.00 0.00 0.00 0.00 0.00 0.01 0.01 0.01 0.01 0.01 0.03 0.03 0.04 0.05 0.04 0.04 0.04 0.03 0.03 0.02 0.02 0.01 0.00 0.00 0.00 0.00 0.00 0.00 0.00 0.00 0.00 0.01 0.01 0.01 0.01 0.01 0.01 0.01 0.01 0.01 0.01 0.01 0.01 0.01
MSLP
1012.70 1012.99 1013.39 1013.91 1014.51 1015.15 1015.76 1016.29 1016.67 1016.88 1016.89 1016.74 1016.45 1016.09 1015.72 1015.39 1015.13 1014.96 1014.86 1014.80 1014.75 1014.65 1014.48 1014.22 1013.86 1013.41 1012.89 1012.35 1011.82 1011.31 1010.85 1010.45 1010.11 1009.82 1009.56 1009.32 1009.09 1008.86 1008.62 1008.37 1008.11 1007.85 1007.60 1007.36
1013.02 1013.32 1013.65 1014.04 1014.47 1014.92 1015.34 1015.72 1016.00 1016.18 1016.23 1016.18 1016.04 1015.85 1015.64 1015.44 1015.27 1015.12 1015.01 1014.89 1014.75 1014.57 1014.32 1013.99 1013.59 1013.13 1012.63 1012.11 1011.59 1011.10 1010.65 1010.24 1009.87 1009.55 1009.26 1008.99 1008.73 1008.47 1008.21 1007.94 1007.66 1007.38 1007.11 1006.85
1013.42 1013.68 1013.94 1014.20 1014.46 1014.73 1014.99 1015.22 1015.41 1015.55 1015.63 1015.66 1015.64 1015.58 1015.50 1015.40 1015.29 1015.17 1015.04 1014.87 1014.67 1014.41 1014.10 1013.74 1013.32 1012.86 1012.38 1011.88 1011.39 1010.91 1010.46 1010.04 1009.65 1009.29 1008.95 1008.64 1008.34 1008.04 1007.74 1007.44 1007.14 1006.84 1006.55 1006.28
1013.81 1014.00 1014.16 1014.29 1014.41 1014.53 1014.64 1014.76 1014.87 1014.98 1015.08 1015.16 1015.22 1015.26 1015.27 1015.25 1015.20 1015.10 1014.95 1014.76 1014.51 1014.22 1013.88 1013.49 1013.07 1012.63 1012.17 1011.70 1011.23 1010.77 1010.31 1009.88 1009.46 1009.05 1008.67 1008.30 1007.95 1007.61 1007.27 1006.94 1006.61 1006.29 1005.98 1005.70
1014.07 1014.17 1014.22 1014.24 1014.24 1014.24 1014.25 1014.28 1014.34 1014.42 1014.52 1014.64 1014.76 1014.87 1014.95 1014.98 1014.97 1014.90 1014.76 1014.57 1014.31 1014.01 1013.66 1013.28 1012.88 1012.46 1012.03 1011.58 1011.13 1010.67 1010.21 1009.75 1009.29 1008.85 1008.42 1008.01 1007.61 1007.23 1006.86 1006.50 1006.15 1005.81 1005.49 1005.21
1014.11 1014.10 1014.06 1013.99 1013.91 1013.83 1013.78 1013.76 1013.79 1013.86 1013.97 1014.11 1014.26 1014.41 1014.53 1014.61 1014.64 1014.60 1014.49 1014.31 1014.08 1013.80 1013.48 1013.12 1012.75 1012.35 1011.94 1011.51 1011.07 1010.60 1010.13 1009.65 1009.16 1008.68 1008.22 1007.77 1007.34 1006.93 1006.54 1006.16 1005.80 1005.46 1005.14 1004.85
1013.85 1013.75 1013.64 1013.51 1013.39 1013.29 1013.23 1013.21 1013.23 1013.31 1013.43 1013.58 1013.76 1013.93 1014.08 1014.18 1014.24 1014.23 1014.16 1014.02 1013.83 1013.59 1013.31 1013.00 1012.66 1012.29 1011.90 1011.47 1011.02 1010.55 1010.06 1009.55 1009.04 1008.54 1008.05 1007.59 1007.15 1006.73 1006.33 1005.96 1005.60 1005.26 1004.94 1004.66
1013.29 1013.12 1012.97 1012.83 1012.72 1012.65 1012.62 1012.63 1012.69 1012.79 1012.93 1013.10 1013.28 1013.46 1013.62 1013.74 1013.82 1013.84 1013.81 1013.72 1013.58 1013.40 1013.17 1012.90 1012.59 1012.25 1011.86 1011.44 1010.98 1010.48 1009.97 1009.44 1008.92 1008.40 1007.91 1007.45 1007.01 1006.61 1006.23 1005.87 1005.53 1005.20 1004.90 1004.62
1012.47 1012.27 1012.11 1012.00 1011.95 1011.95 1011.99 1012.07 1012.19 1012.34 1012.51 1012.69 1012.88 1013.05 1013.21 1013.34 1013.43 1013.48 1013.48 1013.44 1013.35 1013.22 1013.04 1012.81 1012.53 1012.20 1011.81 1011.38 1010.90 1010.39 1009.85 1009.31 1008.78 1008.27 1007.78 1007.34 1006.93 1006.56 1006.21 1005.88 1005.57 1005.27 1004.98 1004.72
1011.45 1011.25 1011.13 1011.09 1011.13 1011.23 1011.38 1011.56 1011.76 1011.97 1012.18 1012.38 1012.56 1012.73 1012.88 1013.00 1013.09 1013.16 1013.19 1013.19 1013.15 1013.06 1012.92 1012.72 1012.45 1012.13 1011.74 1011.29 1010.79 1010.26 1009.71 1009.16 1008.63 1008.13 1007.67 1007.25 1006.88 1006.55 1006.24 1005.95 1005.68 1005.41 1005.16 1004.92
1010.32 1010.14 1010.08 1010.13 1010.29 1010.52 1010.79 1011.09 1011.39 1011.67 1011.92 1012.14 1012.33 1012.49 1012.62 1012.73 1012.82 1012.90 1012.95 1012.98 1012.97 1012.91 1012.79 1012.61 1012.36 1012.03 1011.63 1011.17 1010.65 1010.11 1009.55 1009.00 1008.48 1007.99 1007.56 1007.19 1006.86 1006.57 1006.31 1006.06 1005.83 1005.60 1005.37 1005.16
1009.15 1009.01 1009.03 1009.18 1009.45 1009.81 1010.21 1010.63 1011.02 1011.38 1011.68 1011.93 1012.13 1012.28 1012.41 1012.51 1012.60 1012.68 1012.74 1012.79 1012.79 1012.76 1012.66 1012.49 1012.24 1011.91 1011.51 1011.03 1010.50 1009.95 1009.39 1008.85 1008.35 1007.89 1007.49 1007.15 1006.87 1006.62 1006.39 1006.19 1005.99 1005.79 1005.59 1005.40
1008.03 1007.93 1008.00 1008.24 1008.62 1009.09 1009.60 1010.12 1010.61 1011.04 1011.40 1011.68 1011.90 1012.06 1012.18 1012.29 1012.38 1012.46 1012.53 1012.59 1012.62 1012.59 1012.51 1012.35 1012.10 1011.77 1011.36 1010.88 1010.35 1009.80 1009.26 1008.74 1008.26 1007.83 1007.47 1007.16 1006.91 1006.69 1006.49 1006.31 1006.13 1005.95 1005.77 1005.59
1007.00 1006.93 1007.05 1007.35 1007.80 1008.35 1008.95 1009.54 1010.10 1010.60 1011.00 1011.33 1011.57 1011.76 1011.90 1012.01 1012.11 1012.21 1012.30 1012.37 1012.41 1012.40 1012.32 1012.17 1011.93 1011.60 1011.20 1010.73 1010.21 1009.68 1009.16 1008.67 1008.22 1007.83 1007.50 1007.22 1006.98 1006.78 1006.59 1006.42 1006.24 1006.06 1005.89 1005.71
1006.15 1006.08 1006.21 1006.54 1007.02 1007.61 1008.25 1008.89 1009.50 1010.04 1010.49 1010.85 1011.13 1011.35 1011.51 1011.65 1011.78 1011.90 1012.01 1012.10 1012.15 1012.16 1012.09 1011.95 1011.72 1011.41 1011.02 1010.57 1010.09 1009.59 1009.10 1008.65 1008.23 1007.87 1007.56 1007.30 1007.08 1006.87 1006.68 1006.50 1006.30 1006.11 1005.92 1005.73
1005.55 1005.45 1005.56 1005.87 1006.34 1006.92 1007.56 1008.22 1008.84 1009.40 1009.87 1010.27 1010.58 1010.83 1011.03 1011.21 1011.37 1011.52 1011.65 1011.76 1011.84 1011.86 1011.82 1011.69 1011.48 1011.19 1010.83 1010.41 1009.96 1009.51 1009.06 1008.65 1008.27 1007.94 1007.65 1007.40 1007.17 1006.96 1006.75 1006.53 1006.31 1006.08 1005.86 1005.64
1005.26 1005.11 1005.16 1005.42 1005.83 1006.36 1006.96 1007.58 1008.18 1008.74 1009.22 1009.62 1009.96 1010.24 1010.48 1010.69 1010.89 1011.07 1011.23 1011.37 1011.47 1011.51 1011.49 1011.39 1011.20 1010.94 1010.61 1010.24 1009.83 1009.42 1009.02 1008.64 1008.30 1008.00 1007.72 1007.47 1007.24 1007.00 1006.76 1006.51 1006.25 1005.98 1005.72 1005.47
1005.32 1005.10 1005.09 1005.25 1005.58 1006.02 1006.54 1007.09 1007.63 1008.14 1008.59 1008.99 1009.33 1009.63 1009.89 1010.13 1010.35 1010.56 1010.76 1010.92 1011.05 1011.11 1011.11 1011.04 1010.88 1010.66 1010.37 1010.04 1009.68 1009.31 1008.95 1008.61 1008.30 1008.01 1007.75 1007.50 1007.25 1006.99 1006.72 1006.44 1006.14 1005.83 1005.53 1005.24
1005.74 1005.47 1005.36 1005.43 1005.64 1005.96 1006.36 1006.80 1007.25 1007.67 1008.07 1008.42 1008.74 1009.02 1009.29 1009.54 1009.78 1010.01 1010.23 1010.42 1010.57 1010.66 1010.69 1010.65 1010.53 1010.34 1010.09 1009.80 1009.49 1009.16 1008.83 1008.53 1008.24 1007.97 1007.71 1007.45 1007.20 1006.92 1006.63 1006.32 1005.99 1005.66 1005.33 1005.01
1006.47 1006.13 1005.94 1005.90 1005.98 1006.17 1006.43 1006.73 1007.05 1007.37 1007.67 1007.94 1008.20 1008.45 1008.69 1008.93 1009.18 1009.42 1009.65 1009.86 1010.03 1010.16 1010.22 1010.21 1010.14 1009.99 1009.79 1009.54 1009.26 1008.97 1008.67 1008.39 1008.11 1007.85 1007.60 1007.34 1007.08 1006.80 1006.50 1006.19 1005.85 1005.51 1005.17 1004.85
1007.39 1007.00 1006.73 1006.58 1006.54 1006.59 1006.69 1006.84 1007.01 1007.19 1007.36 1007.54 1007.71 1007.89 1008.08 1008.29 1008.52 1008.76 1009.00 1009.23 1009.43 1009.59 1009.70 1009.73 1009.70 1009.61 1009.45 1009.24 1009.00 1008.74 1008.47 1008.20 1007.94 1007.68 1007.44 1007.19 1006.93 1006.66 1006.38 1006.08 1005.76 1005.44 1005.12 1004.81
1008.34 1007.91 1007.58 1007.34 1007.18 1007.09 1007.04 1007.03 1007.04 1007.07 1007.10 1007.15 1007.21 1007.30 1007.43 1007.59 1007.79 1008.01 1008.26 1008.51 1008.75 1008.96 1009.11 1009.21 1009.24 1009.20 1009.09 1008.93 1008.73 1008.50 1008.25 1007.99 1007.74 1007.50 1007.26 1007.02 1006.78 1006.54 1006.29 1006.03 1005.76 1005.49 1005.22 1004.95
1009.16 1008.72 1008.34 1008.03 1007.77 1007.55 1007.37 1007.20 1007.06 1006.92 1006.81 1006.72 1006.66 1006.65 1006.70 1006.80 1006.97 1007.18 1007.44 1007.72 1008.00 1008.26 1008.48 1008.65 1008.74 1008.77 1008.73 1008.62 1008.46 1008.26 1008.04 1007.80 1007.56 1007.33 1007.10 1006.89 1006.68 1006.48 1006.28 1006.08 1005.88 1005.68 1005.48 1005.27
1009.72 1009.28 1008.88 1008.52 1008.18 1007.86 1007.56 1007.26 1006.97 1006.69 1006.43 1006.21 1006.03 1005.92 1005.89 1005.94 1006.06 1006.27 1006.54 1006.85 1007.18 1007.51 1007.81 1008.06 1008.24 1008.35 1008.38 1008.33 1008.22 1008.06 1007.87 1007.66 1007.44 1007.22 1007.02 1006.83 1006.67 1006.52 1006.39 1006.26 1006.14 1006.02 1005.90 1005.77
1009.96 1009.54 1009.14 1008.74 1008.35 1007.96 1007.56 1007.16 1006.75 1006.34 1005.96 1005.62 1005.34 1005.13 1005.03 1005.02 1005.12 1005.32 1005.61 1005.96 1006.35 1006.75 1007.13 1007.47 1007.74 1007.94 1008.05 1008.08 1008.03 1007.93 1007.77 1007.59 1007.40 1007.21 1007.04 1006.89 1006.77 1006.68 1006.61 1006.57 1006.53 1006.50 1006.46 1006.41
1009.88 1009.49 1009.10 1008.70 1008.29 1007.85 1007.39 1006.90 1006.40 1005.90 1005.42 1004.99 1004.62 1004.34 1004.18 1004.13 1004.21 1004.41 1004.72 1005.11 1005.56 1006.03 1006.50 1006.93 1007.30 1007.59 1007.79 1007.89 1007.92 1007.87 1007.76 1007.63 1007.47 1007.32 1007.18 1007.08 1007.01 1006.97 1006.97 1006.99 1007.03 1007.08 1007.12 1007.13
1009.55 1009.20 1008.84 1008.46 1008.04 1007.59 1007.09 1006.56 1006.00 1005.44 1004.89 1004.39 1003.96 1003.63 1003.42 1003.35 1003.41 1003.62 1003.94 1004.38 1004.88 1005.42 1005.96 1006.48 1006.94 1007.32 1007.60 1007.79 1007.89 1007.91 1007.86 1007.78 1007.67 1007.56 1007.46 1007.40 1007.38 1007.39 1007.44 1007.52 1007.62 1007.72 1007.82 1007.89
Thickness
5743 5751 5751 5747 5745 5741 5730 5715 5697 5694 5692 5696 5700 5700 5697 5693 5688 5684 5679 5674 5669 5662 5655 5650 5645 5640 5636 5630 5625 5620 5614 5609 5605 5601 5597 5592 5588 5584 5580 5576 5573 5570 5567 5564
5738 5752 5750 5744 5744 5740 5733 5724 5710 5700 5696 5706 5705 5698 5692 5689 5686 5680 5676 5671 5665 5659 5652 5646 5640 5635 5630 5624 5618 5612 5606 5601 5597 5593 5588 5583 5579 5574 5570 5566 5562 5559 5556 5554
5720 5736 5738 5722 5736 5733 5726 5725 5714 5699 5700 5704 5697 5693 5690 5688 5684 5678 5672 5667 5660 5654 5647 5641 5635 5630 5623 5617 5611 5605 5599 5594 5589 5584 5579 5575 5571 5566 5561 5557 5553 5549 5547 5544
5715 5719 5708 5725 5746 5741 5726 5720 5719 5712 5708 5704 5700 5696 5692 5688 5681 5675 5670 5663 5656 5649 5643 5637 5631 5625 5618 5611 5604 5598 5592 5587 5582 5577 5572 5567 5563 5558 5554 5549 5545 5542 5539 5537
5707 5706 5713 5730 5739 5734 5720 5710 5719 5711 5707 5703 5698 5691 5685 5686 5680 5674 5668 5661 5653 5646 5640 5633 5626 5620 5613 5606 5598 5592 5587 5581 5576 5571 5566 5561 5557 5552 5549 5544 5541 5537 5534 5531
5712 5705 5701 5722 5746 5748 5726 5701 5718 5713 5706 5701 5693 5675 5675 5683 5678 5673 5666 5657 5650 5643 5636 5629 5622 5615 5607 5600 5594 5588 5583 5577 5572 5567 5561 5557 5553 5549 5545 5541 5537 5534 5531 5528
5711 5706 5712 5739 5749 5742 5706 5700 5717 5714 5707 5700 5690 5682 5681 5681 5675 5670 5663 5655 5648 5640 5631 5624 5618 5611 5603 5596 5590 5585 5580 5574 5569 5563 5558 5554 5550 5546 5542 5538 5534 5530 5527 5524
5708 5701 5707 5746 5742 5725 5718 5723 5719 5712 5707 5702 5694 5690 5684 5678 5672 5666 5658 5652 5644 5634 5627 5620 5614 5607 5599 5592 5588 5582 5576 5570 5565 5561 5556 5554 5548 5544 5540 5535 5531 5527 5523 5520
5722 5722 5741 5749 5744 5741 5733 5724 5719 5713 5708 5702 5694 5687 5682 5676 5669 5662 5655 5647 5639 5631 5623 5617 5610 5603 5595 5590 5585 5579 5573 5567 5563 5559 5554 5550 5545 5541 5537 5532 5527 5524 5520 5517
5732 5738 5745 5747 5744 5740 5736 5729 5723 5716 5709 5702 5693 5686 5680 5671 5663 5657 5650 5643 5635 5627 5619 5613 5607 5600 5593 5587 5582 5575 5570 5565 5561 5556 5553 5549 5544 5540 5535 5530 5526 5522 5518 5515
5730 5737 5738 5740 5740 5737 5733 5728 5721 5715 5709 5701 5693 5684 5677 5667 5660 5654 5647 5640 5632 5624 5616 5610 5604 5598 5592 5585 5579 5573 5568 5563 5559 5555 5551 5548 5544 5539 5535 5531 5526 5521 5517 5513
5728 5737 5733 5733 5738 5737 5729 5723 5718 5712 5706 5700 5692 5683 5675 5666 5659 5652 5644 5637 5629 5621 5614 5608 5602 5595 5590 5584 5578 5572 5567 5563 5559 5555 5552 5548 5544 5541 5539 5533 5530 5524 5519 5513
5750 5750 5745 5743 5740 5737 5729 5724 5719 5713 5705 5696 5690 5682 5674 5664 5657 5650 5642 5635 5627 5620 5613 5606 5600 5594 5588 5583 5577 5571 5566 5563 5560 5556 5552 5549 5545 5541 5538 5536 5533 5527 5522 5516
5757 5750 5740 5738 5735 5734 5730 5725 5718 5711 5704 5696 5688 5680 5671 5663 5655 5648 5640 5633 5626 5619 5612 5605 5598 5592 5587 5582 5577 5572 5568 5565 5562 5558 5554 5551 5547 5543 5539 5535 5532 5529 5525 5519
5753 5751 5743 5740 5735 5731 5727 5720 5711 5704 5698 5691 5684 5676 5668 5660 5652 5646 5639 5632 5624 5617 5610 5603 5596 5591 5587 5581 5576 5572 5569 5566 5563 5560 5557 5553 5549 5546 5542 5538 5533 5529 5526 5522
5748 5746 5741 5735 5730 5726 5721 5715 5707 5701 5695 5688 5680 5673 5667 5660 5652 5644 5637 5630 5622 5614 5608 5601 5595 5590 5586 5581 5576 5573 5570 5569 5566 5562 5559 5556 5552 5548 5544 5540 5536 5532 5528 5524
5736 5730 5728 5725 5723 5721 5718 5714 5708 5701 5693 5686 5678 5672 5664 5656 5648 5641 5635 5628 5621 5614 5607 5601 5595 5590 5586 5581 5576 5572 5569 5567 5567 5564 5561 5557 5554 5550 5546 5542 5539 5534 5531 5528
5738 5735 5732 5728 5723 5719 5715 5712 5706 5699 5692 5686 5677 5668 5660 5652 5644 5638 5632 5626 5619 5612 5606 5600 5595 5589 5585 5580 5576 5572 5569 5567 5565 5563 5561 5559 5556 5552 5549 5545 5542 5538 5534 5532
5727 5724 5723 5722 5719 5715 5710 5705 5700 5694 5688 5681 5672 5664 5657 5651 5644 5638 5631 5624 5616 5609 5604 5600 5595 5589 5584 5579 5576 5572 5569 5567 5565 5564 5562 5560 5558 5555 5551 5548 5545 5541 5538 5535
5711 5711 5711 5709 5708 5704 5700 5697 5693 5687 5681 5674 5667 5659 5653 5647 5642 5635 5627 5620 5614 5608 5603 5598 5592 5587 5583 5578 5576 5571 5569 5567 5565 5564 5562 5560 5558 5556 5553 5550 5547 5545 5542 5539
5694 5695 5695 5694 5692 5692 5689 5686 5681 5676 5672 5667 5661 5654 5648 5643 5638 5631 5623 5616 5611 5606 5600 5596 5590 5585 5580 5576 5574 5571 5569 5567 5565 5563 5562 5560 5558 5556 5554 5552 5550 5547 5545 5543
5677 5677 5678 5678 5676 5674 5674 5672 5670 5666 5662 5658 5654 5649 5643 5637 5632 5626 5621 5615 5609 5603 5596 5591 5586 5582 5578 5575 5572 5570 5568 5566 5564 5562 5561 5560 5558 5556 5555 5554 5552 5550 5548 5546
5661 5662 5662 5662 5661 5659 5659 5659 5657 5655 5652 5649 5647 5643 5638 5633 5627 5620 5614 5610 5604 5599 5592 5587 5583 5580 5576 5572 5569 5567 5566 5564 5562 5560 5559 5558 5557 5556 5555 5554 5553 5552 5550 5549
5647 5648 5648 5649 5648 5645 5645 5646 5647 5646 5644 5643 5642 5639 5633 5627 5621 5617 5613 5607 5601 5595 5588 5583 5580 5576 5573 5568 5566 5564 5562 5560 5559 5558 5557 5557 5556 5555 5554 5554 5553 5553 5552 5550
5631 5633 5634 5634 5633 5634 5634 5635 5635 5635 5634 5634 5633 5631 5628 5623 5617 5612 5605 5600 5595 5589 5584 5580 5576 5572 5567 5564 5561 5560 5558 5556 5555 5555 5554 5554 5553 5553 5552 5552 5552 5551 5551 5549
5616 5616 5618 5620 5620 5621 5622 5622 5621 5621 5621 5621 5620 5619 5616 5613 5609 5604 5598 5593 5588 5583 5578 5574 5570 5566 5562 5559 5557 5555 5553 5552 5551 5550 5550 5550 5550 5550 5549 5549 5550 5549 5548 5547
5601 5603 5604 5605 5607 5608 5609 5609 5608 5608 5609 5608 5608 5607 5605 5602 5598 5594 5590 5586 5581 5576 5571 5567 5564 5560 5557 5554 5552 5550 5548 5547 5546 5545 5545 5545 5545 5544 5545 5545 5545 5545 5545 5544